Regional Weather Roundup
Issued by NWS Charleston, WV

Home | Current Version | Previous Version | Graphics & Text | Print | Product List | Glossary On
Versions: 1 2 3 4 5 6 7 8 9 10 11 12 13 14 15 16 17 18 19 20 21 22 23 24 25 26 27 28 29 30 31 32 33 34 35 36 37 38 39 40 41 42 43 44 45 46 47 48 49 50
000
ASUS41 KRLX 260610
RWRRLX
West Virginia Regional Weather Roundup
National Weather Service Charleston WV
100 AM EST FRI DEC 26 2014

Note: "fair" indicates few or no clouds below 12,000 feet with no
significant weather and/or obstructions to visibility.

WVZ003-260700-
Northern Panhandle of West Virginia

CITY           SKY/WX    TMP DP  RH WIND       PRES   REMARKS
WHEELING       CLOUDY    37  28  70 SW7       30.18F
$$

WVZ009-260700-
Northwest West Virginia

CITY           SKY/WX    TMP DP  RH WIND       PRES   REMARKS
PARKERSBURG    CLEAR     32  27  81 CALM      30.24S
$$

WVZ006-260700-
Western West Virginia

CITY           SKY/WX    TMP DP  RH WIND       PRES   REMARKS
HUNTINGTON     CLEAR     29  27  92 E3        30.22S
$$

WVZ015-260700-
West Central West Virginia

CITY           SKY/WX    TMP DP  RH WIND       PRES   REMARKS
CHARLESTON     CLEAR     29  27  92 CALM      30.22S
$$

WVZ022-031-260700-
North Central West Virginia

CITY           SKY/WX    TMP DP  RH WIND       PRES   REMARKS
CLARKSBURG     CLEAR     35  29  78 S5        30.20F
MORGANTOWN     PTCLDY    37  26  64 CALM      30.19F
$$

WVZ025-035-042-045-260700-
Southern West Virginia

CITY           SKY/WX    TMP DP  RH WIND       PRES   REMARKS
BECKLEY        CLEAR     29  26  89 SE3       30.18F
LOGAN            N/A     34  32  93 CALM      30.20F
BLUEFIELD      PTCLDY    35  27  72 W5        30.18F
LEWISBURG      CLEAR     30  28  93 CALM      30.20F
$$

WVZ047-260700-
Northern Mountains of West Virginia

CITY           SKY/WX    TMP DP  RH WIND       PRES   REMARKS
ELKINS         CLEAR     28  27  96 CALM      30.19F
$$

WVZ052-260700-
Eastern Panhandle of West Virginia

CITY           SKY/WX    TMP DP  RH WIND       PRES   REMARKS
MARTINSBURG    CLEAR     33  26  75 CALM      30.20F
PETERSBURG     CLEAR     28  28  97 CALM      30.22S
$$


USA.gov is the U.S. government's official web portal to all federal, state and local government web resources and services.